星链-1973 (STARLINK-1973 )

导读

STARLINK-1973是美国太空探索技术公司(SpaceX)于2021年2月16日发射的星链(Starlink)低轨卫星,属于星链V1.0卫星平台,运行于近地轨道,轨道倾角约53度,近地点约546公里,远地点约548公里。作为星链星座的组成部分,它为全球提供高速低延迟互联网服务,重点覆盖偏远区域,目前仍处于在轨工作状态,助力星链全球网络覆盖建设。

基本信息
目录编号:
47628
目录名称:
STARLINK-1973
国际标识:
2021-012J
轨道中心:
EARTH
卫星名称:
星链-1973
卫星全名:
星链-1973 (STARLINK-1973 )
卫星状态:
在轨 (已飞行2027 天)
发射日期:
2021-02-16 UTC
国别 :
美国 (US)
星等 :
--
轨道信息
数据来源 国际轨道数据 AOE轨道数据
星历时间 2026-09-05T12:53:44+0800
8小时前
查看轨道信息
2026-09-02T16:00:00+0800
3天前
查看轨道信息
半长轴 6848.886km 6848.883km
偏心率 0.000107 0.0001401
轨道倾角 53.159° 53.160°
近地点辐角 72.909° 60.033°
升交点赤经 309.593° 322.959°
平近点角 287.203° 302.119°
近地点 470.016km 469.786km
远地点 471.482km 471.706km
周期 94.013分钟 94.013分钟
每日圈数 15.316973 15.316981
详细信息
固有亮度:
5
最大亮度:
2.5
卫星平台:
Starlink V1.0
覆盖范围:
全球
运营商:
太空探索技术公司
运营商所在国:
美国
制造商(研发单位):
太空探索技术公司
制造商所在国:
美国
使用方式:
暂无
卫星简介
星链(Starlink)计划是由太空探索技术公司(SpaceX)提出的一个巨型低轨卫星互联网星座项目,计划在2019年至2024年间在太空搭建由约1.2万颗卫星组成的“星链”网络,其中1584颗将部署在地球上空550千米处的近地轨道,并从2020年开始工作。该卫星仍在工作。
2D轨道图
3D轨道图
轨道高度分析图
轨道倾角分析图
轨道综合分析图
查看轨道综合分析图
交会数据列表
事件ID 空间交会对象 最接近时刻(TCA) 交会距离 交会风险概率(CRP) 交会风险指数(CRI) 操作
CDM_260906-212904-762806-580521
2026-09-06T
21:29:36+0000
2.660 km
极远距离
1.572469E-6 低风险 0.39
CDM_260906-120104-762806-543721
2026-09-06T
12:01:47+0000
2.729 km
极远距离
1.500309E-6 低风险 0.39
CDM_260906-090404-762806-821821
2026-09-06T
09:04:36+0000
2.752 km
极远距离
1.498987E-6 低风险 0.39
CDM_260907-205204-762806-913321
2026-09-07T
20:52:40+0000
2.833 km
极远距离
1.411884E-6 低风险 0.38
CDM_260907-205604-762806-880421
2026-09-07T
20:56:24+0000
2.988 km
极远距离
1.332743E-6 低风险 0.37
CDM_260905-184704-762806-485621
2026-09-05T
18:47:08+0000
2.994 km
极远距离
1.321232E-6 低风险 0.37
CDM_260905-191604-762805-347121
2026-09-05T
19:16:19+0000
2.722 km
极远距离
1.136856E-6 低风险 0.36